GFSNGP_sfc_rhum_339.txt.gz
RH
41 35 33 34 33 56 56 51 59 46 40 31 35 45 50 45 46 50 53 56 58 62 60 56 54 49 46 48 49 47 47 49 58 59 54 56 56 64 63 63 60 62 60 60
48 35 28 25 29 43 43 42 39 34 31 35 38 39 46 40 40 49 53 53 51 49 46 45 45 46 43 44 46 43 42 40 43 48 48 55 58 59 60 60 57 59 59 60
58 36 36 47 28 25 37 38 34 44 36 35 40 39 44 43 45 50 49 49 47 45 47 47 44 41 44 44 41 39 40 40 42 46 47 51 50 55 58 59 58 59 60 59
78 58 63 41 26 24 28 31 31 30 34 35 45 50 50 47 50 48 46 45 46 48 46 43 42 42 41 36 39 41 40 39 42 46 45 48 50 55 56 56 57 56 57 62
75 77 50 38 32 29 30 33 29 43 44 44 46 46 53 45 47 48 50 52 51 48 45 43 40 36 34 36 39 39 42 41 42 44 44 48 52 54 54 54 55 55 55 62
87 74 68 50 28 24 25 46 32 40 44 47 47 69 67 46 44 48 46 44 45 42 43 42 40 36 34 36 38 39 40 41 44 43 47 49 52 53 54 53 51 47 47 64
90 81 60 32 22 22 43 52 39 38 43 46 52 58 49 44 45 42 41 40 40 42 42 43 38 34 34 34 34 34 37 40 44 43 43 49 51 53 52 59 60 62 56 65
88 88 73 32 26 33 43 41 40 41 43 57 54 48 46 45 43 41 40 39 37 39 42 38 30 26 27 28 28 32 37 38 41 47 35 38 49 55 55 65 63 62 63 66
65 73 54 42 31 42 37 36 56 56 52 48 48 46 45 44 43 40 38 34 34 34 32 32 33 30 32 30 28 34 38 38 43 41 40 42 49 50 57 66 64 62 61 72
54 47 42 41 39 38 35 51 52 48 46 44 46 44 44 41 39 37 34 36 32 32 32 33 30 28 31 32 35 34 38 42 44 46 51 46 46 46 55 66 64 60 65 77
55 43 40 40 38 36 42 47 45 45 43 44 43 42 39 38 37 34 36 34 33 35 34 32 31 33 32 33 38 38 44 44 46 47 54 51 46 51 53 61 59 63 70 89
63 42 50 44 36 39 44 45 43 42 44 40 39 38 36 37 35 35 37 36 36 34 31 31 33 37 39 39 41 45 47 44 52 52 54 50 49 53 60 61 65 64 62 85
46 34 41 40 35 38 42 43 40 41 40 40 36 35 36 37 36 45 37 36 35 34 32 35 39 44 46 44 45 46 48 43 48 51 49 49 48 54 65 68 62 68 71 66
42 41 46 41 39 40 40 40 46 38 36 36 36 35 36 36 42 40 39 39 37 37 39 43 48 56 55 49 47 48 56 62 48 50 54 48 45 59 63 75 77 65 64 65
42 39 42 44 42 40 38 37 38 38 38 38 36 39 39 39 43 44 40 37 41 50 53 54 58 62 56 54 46 51 53 48 46 51 54 58 58 64 67 65 62 61 60 69
44 46 47 41 40 39 38 38 40 40 38 40 44 42 42 44 42 40 41 44 51 65 58 76 69 61 60 51 52 56 55 58 55 46 54 58 64 65 66 66 67 71 60 60
52 55 57 48 44 42 38 37 40 40 43 46 45 44 46 45 44 48 48 58 60 61 67 63 63 58 57 52 51 58 56 55 67 54 57 64 63 65 68 81 64 59 56 53
48 49 47 46 46 50 46 44 45 45 48 46 47 52 56 56 55 65 67 68 71 76 64 62 61 63 59 55 51 63 56 57 55 56 60 65 75 71 64 62 60 58 59 55
51 52 51 52 48 46 48 48 46 48 52 54 62 63 62 67 67 65 63 73 76 67 59 57 66 63 57 62 63 67 58 60 64 74 70 65 66 65 66 65 64 66 64 64
49 53 55 55 53 50 52 48 52 52 53 61 69 72 75 79 78 77 65 68 67 67 56 61 60 55 53 57 72 63 62 66 60 61 63 69 72 74 72 71 68 75 76 78
64 61 63 58 56 57 56 60 59 65 66 68 69 78 80 82 78 77 78 75 68 62 64 67 58 60 57 69 74 68 70 75 74 74 76 82 89 83 83 83 79 79 91 88
70 74 74 68 63 67 65 59 65 75 76 79 81 81 80 78 80 88 82 76 68 72 69 64 63 79 72 93 73 78 73 75 76 78 87 86 90 98 97 97 95 94 93 97
72 74 78 77 76 75 76 79 79 81 83 82 81 79 69 69 75 85 91 73 76 81 74 75 81 84 93 96 90 90 91 92 91 89 93 93 96 97 96 96 95 93 98 94
77 75 79 78 80 80 88 85 79 81 84 82 80 79 72 84 90 81 78 90 88 88 86 86 89 89 100 96 95 96 96 95 94 95 89 92 97 97 95 97 96 92 94 94
80 81 78 76 78 84 83 84 86 82 76 73 73 73 78 80 88 89 89 90 87 85 88 90 90 91 97 96 96 95 96 96 94 95 94 96 97 97 98 96 98 98 97 95
78 75 73 73 79 80 81 76 82 80 75 86 90 92 92 89 89 85 85 88 88 84 90 95 97 97 96 94 95 93 93 92 93 92 94 97 96 97 98 97 98 97 97 97
82 81 81 83 79 76 77 83 90 89 88 91 95 93 92 91 89 85 92 94 96 96 97 94 94 92 92 93 95 94 94 96 94 92 96 98 98 100 99 99 100 97 97 98

GFSNGP_sfc_rhum_342.txt.gz
RH
49 42 37 33 34 54 56 52 60 49 48 40 48 54 56 60 64 65 65 66 66 67 62 58 58 56 52 52 48 44 44 45 55 59 59 59 62 66 65 65 63 64 65 67
43 38 40 39 35 49 48 49 46 42 39 33 41 53 54 57 61 64 63 60 55 50 50 50 48 48 47 48 45 42 47 50 50 52 52 60 63 65 63 61 61 63 67 75
56 45 47 55 40 39 45 44 38 46 37 49 56 50 52 56 60 63 60 56 52 50 48 47 46 46 47 44 45 45 45 45 47 49 50 57 58 58 60 62 61 64 74 80
76 61 67 44 33 26 31 38 42 38 44 44 49 52 53 54 60 59 55 52 52 51 49 48 44 41 42 41 43 45 45 45 46 49 51 54 56 57 58 61 63 64 81 81
76 75 51 45 36 34 34 35 36 41 47 54 54 56 63 53 52 53 52 56 52 48 47 42 38 38 38 40 42 44 47 46 46 51 54 54 54 57 61 66 65 62 74 77
86 66 64 49 30 28 30 45 48 50 54 53 48 68 70 57 53 56 52 49 49 47 44 42 40 36 36 41 44 45 46 48 50 52 54 53 54 61 65 63 57 56 60 68
92 78 63 43 34 30 47 55 50 45 48 48 47 62 58 53 53 48 46 45 42 40 41 40 37 35 36 37 41 45 47 50 50 47 53 52 60 61 65 62 59 64 61 68
88 82 66 42 29 36 40 50 48 50 49 55 62 57 55 50 48 44 44 42 39 40 40 34 28 28 31 34 37 42 45 49 47 47 41 45 58 63 60 62 61 63 64 66
67 72 54 47 31 36 41 50 52 51 58 57 56 54 51 50 45 43 40 40 37 36 35 34 31 28 32 36 38 43 48 50 47 45 47 49 50 60 63 64 63 61 60 70
57 50 48 45 44 43 41 52 56 56 53 50 53 51 50 46 44 42 38 34 31 31 33 36 33 33 38 39 40 43 49 47 47 49 53 49 47 47 62 65 63 58 62 74
60 48 46 46 42 43 58 55 52 51 48 49 50 49 46 45 41 38 36 32 31 32 34 35 34 36 38 41 45 47 48 46 48 54 53 48 46 55 55 62 61 63 69 90
68 53 54 46 45 56 54 54 51 50 52 47 46 47 44 43 39 38 37 36 35 33 34 37 38 40 44 45 46 48 43 46 55 54 56 50 49 56 63 71 68 69 69 87
61 54 54 47 47 51 50 53 49 48 47 48 44 42 42 41 41 44 39 38 35 35 37 41 44 46 48 52 50 49 49 43 48 52 51 47 48 59 68 69 65 65 72 58
46 51 58 46 48 51 50 47 52 45 44 42 42 40 40 42 47 44 41 38 35 39 45 48 52 56 54 54 51 52 55 63 46 49 53 56 60 64 70 75 80 64 67 54
51 48 47 49 50 51 45 45 46 46 43 43 41 43 44 45 45 45 45 38 41 52 58 59 60 62 58 54 50 57 51 46 48 52 60 65 63 66 68 69 64 60 61 71
53 52 48 55 51 46 43 44 47 46 44 45 47 47 46 46 47 44 43 48 53 60 59 74 69 60 57 52 59 58 52 58 56 53 62 63 63 65 65 71 68 78 65 65
69 67 62 56 56 47 43 42 44 44 46 50 48 51 48 47 49 51 52 57 59 62 61 60 63 53 52 52 58 61 62 59 70 60 64 60 64 70 78 86 70 64 63 68
56 54 54 55 51 55 51 49 47 48 51 50 55 52 56 57 58 66 66 65 70 73 60 57 59 55 46 52 60 62 61 60 56 62 61 73 84 75 72 70 69 70 69 64
54 56 55 59 56 53 52 53 51 51 56 59 58 59 60 64 66 66 65 75 76 62 62 62 72 56 50 64 66 63 62 63 68 81 75 76 72 72 74 72 74 79 70 76
61 58 58 67 58 57 56 53 57 55 56 57 68 74 74 78 76 79 70 66 63 62 57 66 52 53 55 63 73 67 67 70 68 72 74 78 79 83 77 76 72 70 86 79
78 69 65 74 66 60 58 63 60 62 62 71 71 78 78 81 78 78 78 78 66 58 62 63 53 57 61 73 73 72 75 81 79 84 83 89 97 85 88 89 81 85 90 86
81 83 80 80 74 73 69 60 60 73 74 77 79 81 80 81 81 83 82 72 70 69 60 59 62 76 80 86 77 80 79 78 82 83 90 94 96 98 98 99 99 94 96 98
82 87 86 83 80 78 77 76 76 75 80 81 82 80 70 71 71 81 86 66 72 72 64 69 85 93 95 91 89 92 90 92 92 92 94 98 98 99 98 98 96 96 100 98
90 87 84 81 82 80 86 84 77 78 81 81 79 74 70 83 88 79 80 85 83 81 78 86 94 97 95 95 95 96 94 94 94 97 89 97 98 98 98 98 98 97 97 97
90 88 84 80 77 82 82 82 85 80 77 73 73 73 75 74 86 92 90 88 80 70 82 91 95 96 95 95 95 96 97 95 95 94 96 98 98 100 99 98 99 99 99 98
88 90 82 77 78 80 81 74 78 78 76 87 93 94 94 93 90 89 88 84 76 75 86 95 96 95 95 94 94 95 97 89 92 94 97 98 98 98 99 98 100 99 100 100
89 86 85 84 80 76 73 75 80 82 83 90 95 94 93 92 91 89 88 84 82 85 92 96 96 94 94 94 95 96 96 94 95 95 98 99 99 100 100 100 100 100 100 100

GFSNGP_sfc_rhum_348.txt.gz
RH
48 37 40 36 39 60 55 52 53 42 51 42 46 62 68 79 88 88 87 82 80 79 75 71 68 64 58 55 55 55 54 56 59 61 58 58 62 71 73 73 73 78 78 79
49 49 44 40 39 54 56 59 53 53 52 43 60 71 76 78 83 85 84 76 73 69 65 62 59 56 52 54 55 52 52 53 55 56 56 65 70 71 70 73 80 82 82 80
51 50 54 64 49 46 54 51 47 56 44 61 66 65 70 78 78 82 77 72 70 66 61 55 52 51 54 52 50 48 50 52 54 57 61 66 65 65 67 75 82 83 80 78
77 63 67 44 44 39 41 44 47 38 44 50 54 60 64 69 76 77 69 68 64 61 58 53 52 52 52 47 48 50 52 55 57 59 60 63 65 66 67 73 81 82 80 77
77 71 52 43 44 41 43 41 44 37 46 59 70 68 81 72 68 70 65 64 61 60 54 51 49 48 48 50 51 52 55 56 57 59 62 63 63 64 63 69 78 77 74 70
84 61 56 48 36 37 34 49 35 43 59 70 63 68 62 76 68 64 61 59 60 52 50 49 49 46 47 49 50 53 55 57 59 62 61 64 66 63 58 59 62 65 59 65
90 76 60 44 38 36 51 53 44 50 63 64 58 57 70 71 65 60 58 57 50 48 48 47 47 46 48 50 51 56 57 59 61 60 61 64 65 62 62 59 59 66 57 62
88 84 69 44 43 38 42 57 55 59 66 63 74 79 73 67 65 60 57 52 46 47 48 45 44 43 47 49 54 53 55 58 59 60 51 56 62 62 55 61 62 62 62 60
72 68 52 52 42 40 43 39 56 61 65 70 75 75 70 67 62 57 53 46 44 44 46 44 42 40 45 54 50 52 53 54 55 52 54 56 59 63 59 62 63 60 56 64
64 54 55 50 53 44 45 47 55 62 65 62 70 69 67 62 58 55 48 46 42 41 40 41 41 40 43 49 49 48 49 53 54 53 56 50 47 50 59 66 67 59 62 70
74 61 61 52 54 55 48 59 62 66 64 63 65 66 61 59 55 50 47 42 38 38 38 39 41 45 45 48 49 46 46 46 54 58 52 48 47 55 53 60 63 64 69 78
91 70 72 67 58 61 62 61 64 63 66 62 58 60 56 56 50 47 44 38 38 38 39 41 42 46 51 50 46 45 43 47 54 51 52 47 49 59 63 74 71 72 71 84
82 66 62 57 64 59 60 62 65 63 65 62 58 54 54 53 49 48 40 39 39 39 39 42 45 50 53 53 48 46 45 45 50 50 46 49 53 59 65 64 68 74 62 55
59 43 55 58 62 62 63 66 66 60 61 59 55 52 51 49 49 45 42 40 39 41 43 46 48 52 56 54 46 48 48 68 47 51 54 55 64 65 68 71 79 77 59 61
36 31 45 50 63 69 63 62 64 67 60 60 54 54 51 49 47 46 45 41 42 48 50 51 52 59 59 52 46 49 46 49 52 57 61 66 62 65 65 69 62 61 66 77
47 56 62 67 66 70 71 72 78 67 63 61 60 57 53 49 48 47 44 47 50 53 52 64 64 59 59 52 52 50 50 67 64 61 62 60 61 64 68 65 69 80 74 76
72 71 68 73 68 70 70 71 70 64 62 62 60 58 53 54 54 51 52 51 51 54 55 53 58 56 57 57 52 53 55 57 69 61 58 59 68 72 78 86 77 72 75 76
41 56 71 72 70 72 68 70 72 68 64 62 63 59 64 63 56 57 59 64 68 72 58 55 53 55 55 57 53 55 59 58 61 64 65 75 84 78 75 75 78 76 76 79
52 51 50 58 66 70 72 71 72 69 73 71 69 68 66 66 59 61 65 73 75 64 61 55 67 57 54 61 60 60 60 61 70 80 76 80 77 76 76 76 86 78 78 82
81 81 83 85 84 82 78 76 72 72 71 73 76 76 75 76 76 77 65 66 58 59 55 58 47 52 58 68 70 62 64 71 72 76 76 80 84 82 81 82 75 76 84 78
88 86 89 88 86 86 88 81 76 74 74 78 76 79 78 80 78 76 75 72 69 62 54 54 46 58 60 68 63 66 71 78 81 81 82 88 93 84 88 87 83 84 89 86
90 94 92 91 92 92 91 82 71 81 78 80 79 82 85 81 82 78 78 69 70 68 53 53 56 66 70 74 68 74 75 78 82 83 89 91 91 95 97 95 95 94 93 96
94 92 92 92 92 91 93 89 87 82 83 80 83 83 74 73 69 76 88 72 68 64 60 65 78 84 79 79 80 85 86 88 88 88 90 94 93 96 95 94 93 93 98 95
94 93 93 92 94 95 94 91 86 81 81 82 82 79 73 78 83 79 77 74 71 75 79 84 86 84 84 91 92 92 91 91 90 92 88 94 97 97 94 97 95 94 96 96
94 94 94 94 93 95 92 88 91 87 82 78 78 74 69 70 81 85 82 81 81 77 86 89 88 89 91 93 93 93 92 92 92 93 94 96 96 98 97 95 97 97 99 97
95 95 95 92 92 94 89 88 90 85 83 89 85 86 89 88 84 84 84 79 80 84 90 92 90 92 93 92 92 92 91 85 87 90 95 96 96 96 97 96 98 98 100 100
90 90 93 94 93 92 83 84 88 90 86 89 96 94 93 91 88 85 85 88 89 91 92 93 92 90 92 93 92 91 91 89 89 90 96 96 96 98 99 99 99 100 100 100

GFSNGP_sfc_rhum_351.txt.gz
RH
40 30 32 30 33 47 49 37 40 27 34 24 29 41 45 52 66 71 72 68 65 66 67 65 63 60 56 54 52 49 49 50 56 56 54 50 52 57 52 52 52 51 56 57
42 36 35 32 31 40 38 42 33 36 32 28 40 45 57 58 64 67 69 66 64 63 63 61 58 55 54 53 50 47 48 47 48 50 47 54 53 53 53 53 54 56 56 56
46 40 46 57 41 36 40 39 34 41 30 39 49 51 51 55 61 62 66 66 63 60 59 56 53 51 52 48 46 46 46 45 48 47 49 48 45 45 48 52 54 54 54 53
59 50 75 33 34 27 32 36 38 31 30 34 33 43 47 48 56 62 62 64 60 56 54 51 48 46 47 42 44 45 44 44 44 41 42 42 42 43 49 49 50 49 51 50
79 58 43 29 34 34 36 30 32 32 29 30 50 49 50 49 52 56 59 60 57 53 50 48 45 43 41 40 42 44 44 39 38 40 42 41 40 43 43 45 48 48 47 48
70 60 54 38 25 31 27 36 29 33 34 42 45 37 27 54 55 56 56 56 55 50 48 47 44 41 39 38 38 38 38 39 40 41 41 40 41 41 38 40 43 43 43 42
75 68 51 32 30 31 41 40 31 35 39 51 41 36 52 56 57 53 53 53 49 47 47 44 41 39 37 37 36 36 38 39 41 40 40 40 41 37 37 38 42 43 38 38
76 85 74 35 34 40 39 38 33 43 48 53 52 64 63 60 57 54 53 50 45 45 43 41 37 36 34 33 34 36 36 38 38 39 36 37 39 38 37 39 40 42 40 36
68 59 52 46 44 42 36 38 39 43 47 51 57 63 61 60 57 54 51 47 43 42 42 40 36 33 32 36 34 36 37 36 36 37 38 37 37 38 37 40 40 39 39 40
63 51 58 57 51 52 46 50 39 46 48 50 53 60 60 57 54 51 48 46 42 40 39 40 35 33 32 36 33 33 34 36 35 36 38 37 34 33 34 39 42 40 40 44
70 60 50 51 49 53 54 52 49 49 50 50 53 58 56 54 51 48 46 42 40 39 38 36 33 34 35 34 34 32 34 35 34 36 37 35 32 32 32 38 43 41 43 49
75 60 70 67 64 56 56 53 53 53 52 52 51 56 53 52 49 45 44 40 39 37 36 33 32 34 35 34 32 33 33 33 34 35 35 32 32 47 69 68 68 69 69 64
57 58 64 58 54 50 51 52 54 55 53 54 51 51 52 52 49 49 42 40 38 37 34 33 33 36 37 36 34 33 29 32 34 36 31 31 32 36 46 58 74 74 61 58
52 68 76 66 57 53 50 53 57 54 52 51 51 50 51 50 50 47 43 41 38 36 36 35 36 38 39 39 33 33 32 56 32 31 30 33 32 38 39 42 47 54 57 54
44 39 42 42 40 57 61 60 58 56 55 54 49 52 51 50 49 46 44 40 38 42 40 39 38 43 42 38 34 34 33 32 33 34 35 40 40 42 41 42 43 42 48 58
39 43 54 58 58 58 68 78 68 61 59 57 57 55 51 49 46 43 40 41 44 44 41 55 52 44 43 37 36 35 33 50 44 35 41 41 40 42 43 43 43 46 47 49
57 55 55 62 54 63 58 66 70 68 62 62 58 54 48 48 48 47 43 43 42 44 43 45 46 43 41 37 36 34 34 39 52 38 39 38 40 44 46 52 49 48 51 60
67 54 43 46 48 61 58 57 71 78 71 65 60 58 61 63 55 53 52 50 56 60 44 40 45 46 41 39 36 36 36 38 38 41 42 48 52 51 49 50 51 52 54 63
68 65 60 58 59 62 64 66 62 70 78 71 70 70 70 68 55 54 54 68 72 52 47 45 64 50 42 46 44 41 39 41 44 48 50 60 53 50 50 50 54 57 55 56
76 73 75 75 74 76 75 74 73 71 67 67 80 84 81 81 76 77 60 64 54 51 48 56 47 42 42 55 58 42 44 47 48 50 54 54 56 56 55 63 55 58 60 57
86 81 80 80 78 79 87 83 87 76 72 83 85 88 85 80 80 79 79 66 56 57 52 58 43 46 46 55 48 46 49 52 55 57 63 63 69 60 60 60 61 66 70 62
88 92 94 90 85 86 84 81 82 97 90 94 94 91 88 86 84 78 74 65 66 66 56 46 48 57 55 64 48 52 54 56 59 61 67 71 69 76 77 74 76 76 75 76
89 87 88 94 94 93 94 96 100 97 94 94 97 92 85 78 72 77 81 69 64 61 52 56 68 78 73 67 64 68 69 74 74 71 73 76 75 80 74 75 75 73 81 72
88 88 89 87 93 93 95 86 85 83 94 94 91 89 83 86 83 71 76 72 67 71 73 79 81 76 72 85 84 83 80 79 78 79 74 79 85 82 80 83 77 75 77 78
90 91 90 90 82 81 81 81 88 87 85 77 78 80 79 80 87 87 82 76 75 78 83 81 80 79 88 87 86 85 84 82 83 83 81 84 84 86 85 79 82 80 81 80
85 84 85 82 81 80 80 79 80 80 80 90 86 87 89 91 92 92 87 80 78 78 86 91 88 89 89 85 85 84 82 76 79 78 81 81 81 80 83 79 81 78 83 85
87 90 84 84 78 77 78 78 83 86 83 90 95 92 91 91 90 87 87 90 89 90 91 92 91 85 86 87 83 82 81 78 79 78 81 83 83 85 85 82 81 82 84 87